| time (UTC) | temp F | wind direction | speed knots | gust knots | rain 1hr in | rain 24hr in | rain mn in | humidity % | barometer mb |
| 20260507064552 | 58 | 98 | 1.7 | 3.5 | 0.00 | 0.00 | 0.00 | 68 | 1012.1 |
| 20260507063044 | 57 | 98 | 0.0 | 0.9 | 0.00 | 0.00 | 0.00 | 67 | 1011.9 |
| 20260507061552 | 55 | 98 | 0.9 | 2.6 | 0.00 | 0.00 | 0.00 | 67 | 1012.0 |
| 20260507060044 | 57 | 98 | 1.7 | 2.6 | 0.00 | 0.00 | 0.00 | 67 | 1012.0 |
| 20260507054559 | 57 | 0 | 0.0 | 0.0 | 0.00 | 0.00 | 0.00 | 67 | 1011.6 |
| 20260507053059 | 57 | 98 | 0.9 | 1.7 | 0.00 | 0.00 | 0.00 | 67 | 1011.5 |
| 20260507051551 | 57 | 98 | 0.9 | 3.5 | 0.00 | 0.00 | 0.00 | 67 | 1011.4 |
| 20260507050050 | 58 | 98 | 0.9 | 2.6 | 0.00 | 0.00 | 0.00 | 67 | 1011.4 |
| 20260507044552 | 58 | 98 | 2.6 | 6.1 | 0.00 | 0.00 | 0.00 | 67 | 1011.2 |
| 20260507043039 | 58 | 98 | 2.6 | 5.2 | 0.00 | 0.00 | 0.00 | 67 | 1011.3 |
| 20260507041558 | 58 | 98 | 1.7 | 3.5 | 0.00 | 0.00 | 0.00 | 67 | 1011.4 |
| 20260507040045 | 58 | 98 | 0.9 | 3.5 | 0.00 | 0.00 | 0.00 | 67 | 1011.3 |
| 20260507034544 | 58 | 98 | 1.7 | 4.3 | 0.00 | 0.00 | 0.00 | 67 | 1011.3 |
| 20260507033053 | 58 | 98 | 2.6 | 7.0 | 0.00 | 0.00 | 0.00 | 67 | 1011.3 |
| 20260507031548 | 59 | 98 | 3.5 | 11.3 | 0.00 | 0.00 | 0.00 | 67 | 1011.1 |
| 20260507030052 | 59 | 98 | 3.5 | 9.6 | 0.00 | 0.00 | 0.00 | 67 | 1011.0 |
| 20260507024549 | 59 | 98 | 5.2 | 9.6 | 0.00 | 0.00 | 0.00 | 67 | 1011.0 |
| 20260507023051 | 59 | 98 | 3.5 | 7.8 | 0.00 | 0.00 | 0.00 | 67 | 1011.2 |
| 20260507021550 | 59 | 98 | 4.3 | 8.7 | 0.00 | 0.00 | 0.00 | 67 | 1011.1 |
| 20260507020106 | 59 | 98 | 3.5 | 11.3 | 0.00 | 0.00 | 0.00 | 67 | 1011.1 |
| 20260507014606 | 60 | 98 | 5.2 | 13.0 | 0.00 | 0.00 | 0.00 | 67 | 1011.1 |
| 20260507013056 | 60 | 96 | 7.0 | 13.9 | 0.00 | 0.00 | 0.00 | 67 | 1011.1 |
| 20260507011555 | 60 | 99 | 7.0 | 15.6 | 0.00 | 0.00 | 0.00 | 67 | 1011.2 |
| 20260507010046 | 60 | 98 | 6.1 | 14.8 | 0.00 | 0.00 | 0.00 | 67 | 1011.3 |
| 20260507004549 | 61 | 96 | 7.0 | 16.5 | 0.00 | 0.00 | 0.00 | 67 | 1011.4 |
| 20260507003038 | 61 | 94 | 7.0 | 14.8 | 0.00 | 0.00 | 0.00 | 67 | 1011.6 |
| 20260507001558 | 61 | 89 | 7.0 | 13.0 | 0.00 | 0.00 | 0.00 | 67 | 1011.6 |
| 20260507000057 | 61 | 87 | 7.8 | 15.6 | 0.00 | 0.00 | 0.00 | 67 | 1011.6 |
| 20260506234604 | 61 | 86 | 5.2 | 11.3 | 0.00 | 0.00 | 0.00 | 67 | 1011.7 |
| 20260506233049 | 61 | 86 | 7.0 | 16.5 | 0.00 | 0.00 | 0.00 | 67 | 1011.7 |
| 20260506231543 | 62 | 87 | 9.6 | 19.1 | 0.00 | 0.00 | 0.00 | 67 | 1011.9 |
| 20260506230100 | 62 | 75 | 7.8 | 16.5 | 0.00 | 0.00 | 0.00 | 66 | 1011.9 |
| 20260506224550 | 62 | 68 | 9.6 | 19.1 | 0.00 | 0.00 | 0.00 | 66 | 1012.0 |
| 20260506223044 | 62 | 94 | 7.8 | 14.8 | 0.00 | 0.00 | 0.00 | 66 | 1011.9 |
| 20260506221601 | 63 | 93 | 8.7 | 14.8 | 0.00 | 0.00 | 0.00 | 66 | 1011.9 |
| 20260506220047 | 63 | 91 | 7.8 | 13.9 | 0.00 | 0.00 | 0.00 | 66 | 1011.8 |
| 20260506214543 | 63 | 92 | 7.8 | 13.0 | 0.00 | 0.00 | 0.00 | 66 | 1012.0 |
| 20260506213054 | 63 | 92 | 7.8 | 14.8 | 0.00 | 0.00 | 0.00 | 66 | 1011.8 |
| 20260506211553 | 64 | 92 | 7.0 | 13.0 | 0.00 | 0.00 | 0.00 | 66 | 1011.7 |
| 20260506210047 | 64 | 92 | 6.1 | 13.9 | 0.00 | 0.00 | 0.00 | 66 | 1011.4 |
| 20260506204546 | 64 | 96 | 6.1 | 10.4 | 0.00 | 0.00 | 0.00 | 66 | 1011.4 |
| 20260506203044 | 65 | 98 | 6.1 | 11.3 | 0.00 | 0.00 | 0.00 | 66 | 1011.2 |
| 20260506201552 | 65 | 98 | 7.8 | 14.8 | 0.00 | 0.00 | 0.00 | 66 | 1011.3 |
| 20260506200047 | 66 | 117 | 6.1 | 11.3 | 0.00 | 0.00 | 0.00 | 66 | 1011.1 |
| 20260506194546 | 67 | 124 | 7.0 | 12.2 | 0.00 | 0.00 | 0.00 | 66 | 1010.9 |
| 20260506193051 | 68 | 162 | 6.1 | 12.2 | 0.00 | 0.00 | 0.00 | 66 | 1010.8 |
| 20260506191545 | 68 | 172 | 5.2 | 8.7 | 0.00 | 0.00 | 0.00 | 66 | 1010.6 |
| 20260506190043 | 69 | 173 | 2.6 | 5.2 | 0.00 | 0.00 | 0.00 | 66 | 1010.4 |
| 20260506184545 | 69 | 173 | 0.9 | 1.7 | 0.00 | 0.00 | 0.00 | 66 | 1010.3 |
| 20260506183051 | 68 | 173 | 2.6 | 4.3 | 0.00 | 0.00 | 0.00 | 65 | 1010.2 |
| 20260506181607 | 69 | 173 | 3.5 | 6.1 | 0.00 | 0.00 | 0.00 | 64 | 1010.3 |
| 20260506180048 | 70 | 173 | 3.5 | 10.4 | 0.00 | 0.00 | 0.00 | 64 | 1010.3 |
| 20260506174545 | 70 | 173 | 7.8 | 13.0 | 0.00 | 0.00 | 0.00 | 64 | 1010.5 |
| 20260506173112 | 71 | 172 | 7.0 | 13.0 | 0.00 | 0.00 | 0.00 | 65 | 1010.7 |
| 20260506171549 | 71 | 172 | 7.0 | 12.2 | 0.00 | 0.00 | 0.00 | 65 | 1010.7 |
| 20260506170052 | 71 | 172 | 8.7 | 12.2 | 0.00 | 0.00 | 0.00 | 66 | 1010.8 |
| 20260506164545 | 71 | 172 | 7.8 | 12.2 | 0.00 | 0.00 | 0.00 | 66 | 1010.8 |
| 20260506163053 | 71 | 172 | 7.0 | 13.0 | 0.00 | 0.00 | 0.00 | 67 | 1011.0 |
| 20260506161547 | 71 | 171 | 5.2 | 11.3 | 0.00 | 0.00 | 0.00 | 67 | 1011.2 |
| 20260506160046 | 70 | 172 | 7.0 | 14.8 | 0.00 | 0.00 | 0.00 | 67 | 1011.3 |
| 20260506154606 | 69 | 174 | 6.1 | 13.9 | 0.00 | 0.00 | 0.00 | 66 | 1011.5 |
| 20260506153046 | 68 | 178 | 7.8 | 14.8 | 0.00 | 0.00 | 0.00 | 66 | 1011.7 |
| 20260506151546 | 67 | 181 | 11.3 | 18.2 | 0.00 | 0.00 | 0.00 | 66 | 1012.0 |
| 20260506150047 | 68 | 180 | 9.6 | 17.4 | 0.00 | 0.00 | 0.00 | 65 | 1012.2 |
| 20260506144551 | 68 | 181 | 8.7 | 15.6 | 0.00 | 0.00 | 0.00 | 65 | 1012.5 |
| 20260506143044 | 67 | 181 | 9.6 | 16.5 | 0.00 | 0.00 | 0.00 | 65 | 1012.5 |
| 20260506141549 | 68 | 169 | 7.8 | 15.6 | 0.00 | 0.00 | 0.00 | 65 | 1013.0 |
| 20260506140048 | 69 | 161 | 9.6 | 14.8 | 0.00 | 0.00 | 0.00 | 65 | 1013.2 |
| 20260506134544 | 69 | 160 | 6.1 | 14.8 | 0.00 | 0.00 | 0.00 | 65 | 1013.3 |
| 20260506133056 | 70 | 153 | 4.3 | 12.2 | 0.00 | 0.00 | 0.00 | 66 | 1013.4 |
| 20260506131545 | 69 | 149 | 6.1 | 12.2 | 0.00 | 0.00 | 0.00 | 66 | 1013.6 |
| 20260506130046 | 69 | 146 | 7.0 | 11.3 | 0.00 | 0.00 | 0.00 | 66 | 1013.6 |
| 20260506124545 | 69 | 141 | 4.3 | 11.3 | 0.00 | 0.00 | 0.00 | 67 | 1014.0 |
| 20260506123047 | 69 | 131 | 5.2 | 10.4 | 0.00 | 0.00 | 0.00 | 67 | 1014.0 |
| 20260506121545 | 68 | 129 | 7.0 | 12.2 | 0.00 | 0.00 | 0.00 | 67 | 1014.3 |
| 20260506120044 | 68 | 127 | 6.1 | 12.2 | 0.00 | 0.00 | 0.00 | 67 | 1014.4 |
| 20260506114548 | 68 | 106 | 5.2 | 11.3 | 0.00 | 0.00 | 0.00 | 67 | 1014.5 |
| 20260506113042 | 67 | 106 | 7.8 | 11.3 | 0.00 | 0.00 | 0.00 | 67 | 1014.6 |
| 20260506111549 | 67 | 105 | 6.1 | 11.3 | 0.00 | 0.00 | 0.00 | 68 | 1014.8 |
| 20260506110047 | 67 | 105 | 7.0 | 11.3 | 0.00 | 0.00 | 0.00 | 68 | 1014.9 |
| 20260506104608 | 67 | 105 | 4.3 | 10.4 | 0.00 | 0.00 | 0.00 | 68 | 1014.9 |
| 20260506103044 | 66 | 105 | 6.1 | 9.6 | 0.00 | 0.00 | 0.00 | 68 | 1015.0 |
| 20260506101548 | 66 | 105 | 4.3 | 8.7 | 0.00 | 0.00 | 0.00 | 68 | 1014.9 |
| 20260506100046 | 68 | 105 | 0.9 | 7.0 | 0.00 | 0.00 | 0.00 | 69 | 1014.9 |
| 20260506094540 | 66 | 105 | 2.6 | 9.6 | 0.00 | 0.00 | 0.00 | 69 | 1014.9 |
| 20260506093045 | 66 | 105 | 3.5 | 6.1 | 0.00 | 0.00 | 0.00 | 70 | 1014.7 |
| 20260506091544 | 65 | 105 | 2.6 | 10.4 | 0.00 | 0.00 | 0.00 | 70 | 1014.8 |
| 20260506090047 | 64 | 105 | 1.7 | 7.8 | 0.00 | 0.00 | 0.00 | 70 | 1014.9 |
| 20260506084544 | 64 | 105 | 1.7 | 7.8 | 0.00 | 0.00 | 0.00 | 70 | 1014.9 |
| 20260506083047 | 63 | 105 | 1.7 | 7.8 | 0.00 | 0.00 | 0.00 | 70 | 1014.9 |
| 20260506081557 | 61 | 105 | 3.5 | 7.0 | 0.00 | 0.00 | 0.00 | 70 | 1014.9 |
| 20260506073048 | 59 | 105 | 3.5 | 10.4 | 0.00 | 0.00 | 0.00 | 70 | 1015.1 |
| 20260506071545 | 58 | 105 | 5.2 | 11.3 | 0.00 | 0.00 | 0.00 | 70 | 1015.0 |